Location: Newark
(47.7394°N, 8.0008°E)
Time: 02:55:23
(UTC+00:00)

N. Korean satellite - Pass Details

Date: 18 December 2019
Orbit: 454 x 507 km, 97.2° (Epoch: 23 January)

Event Time Altitude Azimuth Distance (km) Brightness Sun altitude
Rises 06:16:23 0° 0° (N) 2,524 9.9 -8.9°
Reaches altitude 10° 06:18:44 10° 346° (NNW) 1,633 8.9 -8.5°
Maximum altitude 06:21:31 23° 293° (WNW) 1,041 7.6 -8.1°
Drops below altitude 10° 06:24:17 10° 240° (WSW) 1,604 8.9 -7.7°
Sets 06:26:34 0° 225° (SW) 2,467 10.0 -7.4°
